Year,Month,Day,Hour,Minute,Value (Times are PST for temperature in C)
2017,08,09,00,00,13.90
2017,08,09,00,01,13.90
2017,08,09,00,02,13.90
2017,08,09,00,03,13.90
2017,08,09,00,04,13.90
2017,08,09,00,05,13.90
2017,08,09,00,06,13.90
2017,08,09,00,07,13.90
2017,08,09,00,08,13.90
2017,08,09,00,09,13.80
2017,08,09,00,10,13.80
2017,08,09,00,11,13.80
2017,08,09,00,12,13.80
2017,08,09,00,13,13.80
2017,08,09,00,14,13.80
2017,08,09,00,15,13.80
2017,08,09,00,16,13.80
2017,08,09,00,17,13.80
2017,08,09,00,18,13.80
2017,08,09,00,19,13.80
2017,08,09,00,20,13.80
2017,08,09,00,21,13.70
2017,08,09,00,22,13.70
2017,08,09,00,23,13.70
2017,08,09,00,24,13.70
2017,08,09,00,25,13.70
2017,08,09,00,26,13.70
2017,08,09,00,27,13.70
2017,08,09,00,28,13.70
2017,08,09,00,29,13.70
2017,08,09,00,30,13.70
2017,08,09,00,31,13.70
2017,08,09,00,32,13.70
2017,08,09,00,33,13.70
2017,08,09,00,34,13.70
2017,08,09,00,35,13.70
2017,08,09,00,36,13.70
2017,08,09,00,37,13.70
2017,08,09,00,38,13.70
2017,08,09,00,39,13.70
2017,08,09,00,40,13.70
2017,08,09,00,41,13.70
2017,08,09,00,42,13.70
2017,08,09,00,43,13.70
2017,08,09,00,44,13.70
2017,08,09,00,45,13.70
2017,08,09,00,46,13.70
2017,08,09,00,47,13.70
2017,08,09,00,48,13.70
2017,08,09,00,49,13.70
2017,08,09,00,50,13.70
2017,08,09,00,51,13.70
2017,08,09,00,52,13.70
2017,08,09,00,53,13.70
2017,08,09,00,54,13.70
2017,08,09,00,55,13.70
2017,08,09,00,56,13.70
2017,08,09,00,57,13.70
2017,08,09,00,58,13.70
2017,08,09,00,59,13.70
2017,08,09,01,00,13.70
2017,08,09,01,01,13.70
2017,08,09,01,02,13.70
2017,08,09,01,03,13.70
2017,08,09,01,04,13.70
2017,08,09,01,05,13.70
2017,08,09,01,06,13.70
2017,08,09,01,07,13.70
2017,08,09,01,08,13.70
2017,08,09,01,09,13.70
2017,08,09,01,10,13.70
2017,08,09,01,11,13.70
2017,08,09,01,12,13.70
2017,08,09,01,13,13.70
2017,08,09,01,14,13.70
2017,08,09,01,15,13.70
2017,08,09,01,16,13.70
2017,08,09,01,17,13.70
2017,08,09,01,18,13.70
2017,08,09,01,19,13.70
2017,08,09,01,20,13.70
2017,08,09,01,21,13.60
2017,08,09,01,22,13.60
2017,08,09,01,23,13.60
2017,08,09,01,24,13.60
2017,08,09,01,25,13.60
2017,08,09,01,26,13.70
2017,08,09,01,27,13.70
2017,08,09,01,28,13.70
2017,08,09,01,29,13.70
2017,08,09,01,30,13.70
2017,08,09,01,31,13.70
2017,08,09,01,32,13.70
2017,08,09,01,33,13.70
2017,08,09,01,34,13.70
2017,08,09,01,35,13.70
2017,08,09,01,36,13.70
2017,08,09,01,37,13.70
2017,08,09,01,38,13.70
2017,08,09,01,39,13.80
2017,08,09,01,40,13.70
2017,08,09,01,41,13.80
2017,08,09,01,42,13.80
2017,08,09,01,43,13.80
2017,08,09,01,44,13.80
2017,08,09,01,45,13.80
2017,08,09,01,46,13.80
2017,08,09,01,47,13.80
2017,08,09,01,48,13.80
2017,08,09,01,49,13.80
2017,08,09,01,50,13.80
2017,08,09,01,51,13.80
2017,08,09,01,52,13.80
2017,08,09,01,53,13.80
2017,08,09,01,54,13.80
2017,08,09,01,55,13.80
2017,08,09,01,56,13.80
2017,08,09,01,57,13.80
2017,08,09,01,58,13.80
2017,08,09,01,59,13.80
2017,08,09,02,00,13.80
2017,08,09,02,01,13.80
2017,08,09,02,02,13.80
2017,08,09,02,03,13.80
2017,08,09,02,04,13.80
2017,08,09,02,05,13.80
2017,08,09,02,06,13.80
2017,08,09,02,07,13.80
2017,08,09,02,08,13.80
2017,08,09,02,09,13.80
2017,08,09,02,10,13.80
2017,08,09,02,11,13.80
2017,08,09,02,12,13.80
2017,08,09,02,13,13.80
2017,08,09,02,14,13.80
2017,08,09,02,15,13.80
2017,08,09,02,16,13.80
2017,08,09,02,17,13.80
2017,08,09,02,18,13.70
2017,08,09,02,19,13.70
2017,08,09,02,20,13.70
2017,08,09,02,21,13.70
2017,08,09,02,22,13.70
2017,08,09,02,23,13.70
2017,08,09,02,24,13.70
2017,08,09,02,25,13.70
2017,08,09,02,26,13.70
2017,08,09,02,27,13.70
2017,08,09,02,28,13.70
2017,08,09,02,29,13.70
2017,08,09,02,30,13.70
2017,08,09,02,31,13.70
2017,08,09,02,32,13.70
2017,08,09,02,33,13.70
2017,08,09,02,34,13.70
2017,08,09,02,35,13.70
2017,08,09,02,36,13.70
2017,08,09,02,37,13.70
2017,08,09,02,38,13.70
2017,08,09,02,39,13.70
2017,08,09,02,40,13.70
2017,08,09,02,41,13.60
2017,08,09,02,42,13.60
2017,08,09,02,43,13.60
2017,08,09,02,44,13.60
2017,08,09,02,45,13.60
2017,08,09,02,46,13.60
2017,08,09,02,47,13.60
2017,08,09,02,48,13.60
2017,08,09,02,49,13.60
2017,08,09,02,50,13.60
2017,08,09,02,51,13.60
2017,08,09,02,52,13.60
2017,08,09,02,53,13.60
2017,08,09,02,54,13.60
2017,08,09,02,55,13.60
2017,08,09,02,56,13.60
2017,08,09,02,57,13.60
2017,08,09,02,58,13.60
2017,08,09,02,59,13.60
2017,08,09,03,00,13.60
2017,08,09,03,01,13.60
2017,08,09,03,02,13.60
2017,08,09,03,03,13.60
2017,08,09,03,04,13.60
2017,08,09,03,05,13.60
2017,08,09,03,06,13.60
2017,08,09,03,07,13.60
2017,08,09,03,08,13.60
2017,08,09,03,09,13.60
2017,08,09,03,10,13.60
2017,08,09,03,11,13.60
2017,08,09,03,12,13.60
2017,08,09,03,13,13.60
2017,08,09,03,14,13.60
2017,08,09,03,15,13.60
2017,08,09,03,16,13.60
2017,08,09,03,17,13.60
2017,08,09,03,18,13.60
2017,08,09,03,19,13.60
2017,08,09,03,20,13.60
2017,08,09,03,21,13.60
2017,08,09,03,22,13.60
2017,08,09,03,23,13.60
2017,08,09,03,24,13.60
2017,08,09,03,25,13.50
2017,08,09,03,26,13.50
2017,08,09,03,27,13.50
2017,08,09,03,28,13.50
2017,08,09,03,29,13.50
2017,08,09,03,30,13.50
2017,08,09,03,31,13.50
2017,08,09,03,32,13.50
2017,08,09,03,33,13.50
2017,08,09,03,34,13.50
2017,08,09,03,35,13.50
2017,08,09,03,36,13.50
2017,08,09,03,37,13.50
2017,08,09,03,38,13.50
2017,08,09,03,39,13.60
2017,08,09,03,40,13.60
2017,08,09,03,41,13.60
2017,08,09,03,42,13.60
2017,08,09,03,43,13.60
2017,08,09,03,44,13.60
2017,08,09,03,45,13.60
2017,08,09,03,46,13.60
2017,08,09,03,47,13.60
2017,08,09,03,48,13.60
2017,08,09,03,49,13.60
2017,08,09,03,50,13.60
2017,08,09,03,51,13.60
2017,08,09,03,52,13.60
2017,08,09,03,53,13.60
2017,08,09,03,54,13.50
2017,08,09,03,55,13.60
2017,08,09,03,56,13.60
2017,08,09,03,57,13.60
2017,08,09,03,58,13.60
2017,08,09,03,59,13.50
2017,08,09,04,00,13.50
2017,08,09,04,01,13.50
2017,08,09,04,02,13.60
2017,08,09,04,03,13.60
2017,08,09,04,04,13.60
2017,08,09,04,05,13.60
2017,08,09,04,06,13.50
2017,08,09,04,07,13.50
2017,08,09,04,08,13.50
2017,08,09,04,09,13.50
2017,08,09,04,10,13.50
2017,08,09,04,11,13.50
2017,08,09,04,12,13.50
2017,08,09,04,13,13.50
2017,08,09,04,14,13.50
2017,08,09,04,15,13.50
2017,08,09,04,16,13.50
2017,08,09,04,17,13.50
2017,08,09,04,18,13.50
2017,08,09,04,19,13.50
2017,08,09,04,20,13.50
2017,08,09,04,21,13.50
2017,08,09,04,22,13.50
2017,08,09,04,23,13.50
2017,08,09,04,24,13.40
2017,08,09,04,25,13.40
2017,08,09,04,26,13.40
2017,08,09,04,27,13.40
2017,08,09,04,28,13.40
2017,08,09,04,29,13.40
2017,08,09,04,30,13.40
2017,08,09,04,31,13.40
2017,08,09,04,32,13.40
2017,08,09,04,33,13.40
2017,08,09,04,34,13.40
2017,08,09,04,35,13.40
2017,08,09,04,36,13.40
2017,08,09,04,37,13.40
2017,08,09,04,38,13.40
2017,08,09,04,39,13.50
2017,08,09,04,40,13.50
2017,08,09,04,41,13.50
2017,08,09,04,42,13.50
2017,08,09,04,43,13.50
2017,08,09,04,44,13.50
2017,08,09,04,45,13.50
2017,08,09,04,46,13.50
2017,08,09,04,47,13.50
2017,08,09,04,48,13.50
2017,08,09,04,49,13.40
2017,08,09,04,50,13.40
2017,08,09,04,51,13.40
2017,08,09,04,52,13.40
2017,08,09,04,53,13.40
2017,08,09,04,54,13.40
2017,08,09,04,55,13.40
2017,08,09,04,56,13.40
2017,08,09,04,57,13.40
2017,08,09,04,58,13.40
2017,08,09,04,59,13.40
2017,08,09,05,00,13.30
2017,08,09,05,01,13.30
2017,08,09,05,02,13.30
2017,08,09,05,03,13.30
2017,08,09,05,04,13.30
2017,08,09,05,05,13.30
2017,08,09,05,06,13.30
2017,08,09,05,07,13.30
2017,08,09,05,08,13.30
2017,08,09,05,09,13.30
2017,08,09,05,10,13.30
2017,08,09,05,11,13.30
2017,08,09,05,12,13.30
2017,08,09,05,13,13.30
2017,08,09,05,14,13.30
2017,08,09,05,15,13.30
2017,08,09,05,16,13.30
2017,08,09,05,17,13.30
2017,08,09,05,18,13.30
2017,08,09,05,19,13.20
2017,08,09,05,20,13.20
2017,08,09,05,21,13.20
2017,08,09,05,22,13.20
2017,08,09,05,23,13.20
2017,08,09,05,24,13.20
2017,08,09,05,25,13.20
2017,08,09,05,26,13.20
2017,08,09,05,27,13.20
2017,08,09,05,28,13.20
2017,08,09,05,29,13.20
2017,08,09,05,30,13.20
2017,08,09,05,31,13.20
2017,08,09,05,32,13.20
2017,08,09,05,33,13.20
2017,08,09,05,34,13.20
2017,08,09,05,35,13.10
2017,08,09,05,36,13.10
2017,08,09,05,37,13.10
2017,08,09,05,38,13.10
2017,08,09,05,39,13.10
2017,08,09,05,40,13.20
2017,08,09,05,41,13.20
2017,08,09,05,42,13.20
2017,08,09,05,43,13.20
2017,08,09,05,44,13.20
2017,08,09,05,45,13.20
2017,08,09,05,46,13.20
2017,08,09,05,47,13.20
2017,08,09,05,48,13.20
2017,08,09,05,49,13.20
2017,08,09,05,50,13.20
2017,08,09,05,51,13.10
2017,08,09,05,52,13.10
2017,08,09,05,53,13.10
2017,08,09,05,54,13.10
2017,08,09,05,55,13.10
2017,08,09,05,56,13.10
2017,08,09,05,57,13.10
2017,08,09,05,58,13.10
2017,08,09,05,59,13.10
2017,08,09,06,00,13.10
2017,08,09,06,01,13.10
2017,08,09,06,02,13.10
2017,08,09,06,03,13.10
2017,08,09,06,04,13.10
2017,08,09,06,05,13.10
2017,08,09,06,06,13.10
2017,08,09,06,07,13.10
2017,08,09,06,08,13.10
2017,08,09,06,09,13.10
2017,08,09,06,10,13.10
2017,08,09,06,11,13.10
2017,08,09,06,12,13.10
2017,08,09,06,13,13.10
2017,08,09,06,14,13.20
2017,08,09,06,15,13.10
2017,08,09,06,16,13.20
2017,08,09,06,17,13.20
2017,08,09,06,18,13.20
2017,08,09,06,19,13.20
2017,08,09,06,20,13.20
2017,08,09,06,21,13.20
2017,08,09,06,22,13.20
2017,08,09,06,23,13.10
2017,08,09,06,24,13.20
2017,08,09,06,25,13.20
2017,08,09,06,26,13.20
2017,08,09,06,27,13.20
2017,08,09,06,28,13.20
2017,08,09,06,29,13.10
2017,08,09,06,30,13.10
2017,08,09,06,31,13.10
2017,08,09,06,32,13.10
2017,08,09,06,33,13.10
2017,08,09,06,34,13.10
2017,08,09,06,35,13.10
2017,08,09,06,36,13.10
2017,08,09,06,37,13.10
2017,08,09,06,38,13.10
2017,08,09,06,39,13.10
2017,08,09,06,40,13.10
2017,08,09,06,41,13.10
2017,08,09,06,42,13.10
2017,08,09,06,43,13.10
2017,08,09,06,44,13.10
2017,08,09,06,45,13.10
2017,08,09,06,46,13.10
2017,08,09,06,47,13.10
2017,08,09,06,48,13.10
2017,08,09,06,49,13.10
2017,08,09,06,50,13.10
2017,08,09,06,51,13.10
2017,08,09,06,52,13.10
2017,08,09,06,53,13.10
2017,08,09,06,54,13.10
2017,08,09,06,55,13.10
2017,08,09,06,56,13.10
2017,08,09,06,57,13.10
2017,08,09,06,58,13.10
2017,08,09,06,59,13.10
2017,08,09,07,00,13.10
2017,08,09,07,01,13.10
2017,08,09,07,02,13.10
2017,08,09,07,03,13.10
2017,08,09,07,04,13.10
2017,08,09,07,05,13.10
2017,08,09,07,06,13.10
2017,08,09,07,07,13.10
2017,08,09,07,08,13.10
2017,08,09,07,09,13.10
2017,08,09,07,10,13.10
2017,08,09,07,11,13.10
2017,08,09,07,12,13.10
2017,08,09,07,13,13.10
2017,08,09,07,14,13.10
2017,08,09,07,15,13.10
2017,08,09,07,16,13.10
2017,08,09,07,17,13.10
2017,08,09,07,18,13.10
2017,08,09,07,19,13.10
2017,08,09,07,20,13.10
2017,08,09,07,21,13.10
2017,08,09,07,22,13.10
2017,08,09,07,23,13.10
2017,08,09,07,24,13.10
2017,08,09,07,25,13.10
2017,08,09,07,26,13.10
2017,08,09,07,27,13.10
2017,08,09,07,28,13.10
2017,08,09,07,29,13.10
2017,08,09,07,30,13.10
2017,08,09,07,31,13.10
2017,08,09,07,32,13.10
2017,08,09,07,33,13.10
2017,08,09,07,34,13.10
2017,08,09,07,35,13.10
2017,08,09,07,36,13.10
2017,08,09,07,37,13.20
2017,08,09,07,38,13.20
2017,08,09,07,39,13.20
2017,08,09,07,40,13.20
2017,08,09,07,41,13.20
2017,08,09,07,42,13.20
2017,08,09,07,43,13.20
2017,08,09,07,44,13.20
2017,08,09,07,45,13.20
2017,08,09,07,46,13.10
2017,08,09,07,47,13.20
2017,08,09,07,48,13.20
2017,08,09,07,49,13.20
2017,08,09,07,50,13.20
2017,08,09,07,51,13.20
2017,08,09,07,52,13.20
2017,08,09,07,53,13.20
2017,08,09,07,54,13.20
2017,08,09,07,55,13.20
2017,08,09,07,56,13.20
2017,08,09,07,57,13.20
2017,08,09,07,58,13.20
2017,08,09,07,59,13.30
2017,08,09,08,00,13.30
2017,08,09,08,01,13.30
2017,08,09,08,02,13.30
2017,08,09,08,03,13.30
2017,08,09,08,04,13.30
2017,08,09,08,05,13.30
2017,08,09,08,06,13.30
2017,08,09,08,07,13.30
2017,08,09,08,08,13.30
2017,08,09,08,09,13.30
2017,08,09,08,10,13.30
2017,08,09,08,11,13.30
2017,08,09,08,12,13.40
2017,08,09,08,13,13.40
2017,08,09,08,14,13.40
2017,08,09,08,15,13.40
2017,08,09,08,16,13.50
2017,08,09,08,17,13.50
2017,08,09,08,18,13.50
2017,08,09,08,19,13.50
2017,08,09,08,20,13.50
2017,08,09,08,21,13.50
2017,08,09,08,22,13.40
2017,08,09,08,23,13.40
2017,08,09,08,24,13.50
2017,08,09,08,25,13.50
2017,08,09,08,26,13.50
2017,08,09,08,27,13.50
2017,08,09,08,28,13.50
2017,08,09,08,29,13.40
2017,08,09,08,30,13.40
2017,08,09,08,31,13.40
2017,08,09,08,32,13.40
2017,08,09,08,33,13.40
2017,08,09,08,34,13.40
2017,08,09,08,35,13.40
2017,08,09,08,36,13.40
2017,08,09,08,37,13.40
2017,08,09,08,38,13.40
2017,08,09,08,39,13.40
2017,08,09,08,40,13.40
2017,08,09,08,41,13.40
2017,08,09,08,42,13.40
2017,08,09,08,43,13.40
2017,08,09,08,44,13.40
2017,08,09,08,45,13.40
2017,08,09,08,46,13.40
2017,08,09,08,47,13.40
2017,08,09,08,48,13.40
2017,08,09,08,49,13.40
2017,08,09,08,50,13.40
2017,08,09,08,51,13.40
2017,08,09,08,52,13.40
2017,08,09,08,53,13.40
2017,08,09,08,54,13.40
2017,08,09,08,55,13.40
2017,08,09,08,56,13.40
2017,08,09,08,57,13.40
2017,08,09,08,58,13.40
2017,08,09,08,59,13.40
2017,08,09,09,00,13.40
2017,08,09,09,01,13.40
2017,08,09,09,02,13.30
2017,08,09,09,03,13.30
2017,08,09,09,04,13.30
2017,08,09,09,05,13.30
2017,08,09,09,06,13.30
2017,08,09,09,07,13.30
2017,08,09,09,08,13.30
2017,08,09,09,09,13.40
2017,08,09,09,10,13.30
2017,08,09,09,11,13.30
2017,08,09,09,12,13.30
2017,08,09,09,13,13.30
2017,08,09,09,14,13.30
2017,08,09,09,15,13.30
2017,08,09,09,16,13.30
2017,08,09,09,17,13.30
2017,08,09,09,18,13.40
2017,08,09,09,19,13.40
2017,08,09,09,20,13.40
2017,08,09,09,21,13.40
2017,08,09,09,22,13.40
2017,08,09,09,23,13.40
2017,08,09,09,24,13.40
2017,08,09,09,25,13.30
2017,08,09,09,26,13.30
2017,08,09,09,27,13.40
2017,08,09,09,28,13.40
2017,08,09,09,29,13.40
2017,08,09,09,30,13.40
2017,08,09,09,31,13.50
2017,08,09,09,32,13.50
2017,08,09,09,33,13.40
2017,08,09,09,34,13.40
2017,08,09,09,35,13.50
2017,08,09,09,36,13.50
2017,08,09,09,37,13.50
2017,08,09,09,38,13.50
2017,08,09,09,39,13.50
2017,08,09,09,40,13.50
2017,08,09,09,41,13.50
2017,08,09,09,42,13.50
2017,08,09,09,43,13.50
2017,08,09,09,44,13.60
2017,08,09,09,45,13.60
2017,08,09,09,46,13.60
2017,08,09,09,47,13.70
2017,08,09,09,48,13.70
2017,08,09,09,49,13.80
2017,08,09,09,50,13.90
2017,08,09,09,51,13.90
2017,08,09,09,52,14.00
2017,08,09,09,53,14.00
2017,08,09,09,54,14.10
2017,08,09,09,55,14.10
2017,08,09,09,56,14.20
2017,08,09,09,57,14.20
2017,08,09,09,58,14.30
2017,08,09,09,59,14.30
2017,08,09,10,00,14.30
2017,08,09,10,01,14.40
2017,08,09,10,02,14.40
2017,08,09,10,03,14.50
2017,08,09,10,04,14.60
2017,08,09,10,05,14.60
2017,08,09,10,06,14.70
2017,08,09,10,07,14.80
2017,08,09,10,08,14.90
2017,08,09,10,09,15.10
2017,08,09,10,10,15.20
2017,08,09,10,11,15.20
2017,08,09,10,12,15.30
2017,08,09,10,13,15.30
2017,08,09,10,14,15.30
2017,08,09,10,15,15.30
2017,08,09,10,16,15.30
2017,08,09,10,17,15.30
2017,08,09,10,18,15.30
2017,08,09,10,19,15.40
2017,08,09,10,20,15.40
2017,08,09,10,21,15.50
2017,08,09,10,22,15.60
2017,08,09,10,23,15.70
2017,08,09,10,24,15.80
2017,08,09,10,25,15.90
2017,08,09,10,26,15.90
2017,08,09,10,27,15.90
2017,08,09,10,28,15.90
2017,08,09,10,29,15.90
2017,08,09,10,30,16.00
2017,08,09,10,31,16.00
2017,08,09,10,32,16.10
2017,08,09,10,33,16.10
2017,08,09,10,34,16.20
2017,08,09,10,35,16.20
2017,08,09,10,36,16.30
2017,08,09,10,37,16.30
2017,08,09,10,38,16.40
2017,08,09,10,39,16.40
2017,08,09,10,40,16.50
2017,08,09,10,41,16.60
2017,08,09,10,42,16.60
2017,08,09,10,43,16.70
2017,08,09,10,44,16.70
2017,08,09,10,45,16.80
2017,08,09,10,46,16.80
2017,08,09,10,47,16.80
2017,08,09,10,48,16.90
2017,08,09,10,49,16.90
2017,08,09,10,50,17.00
2017,08,09,10,51,17.10
2017,08,09,10,52,17.10
2017,08,09,10,53,17.20
2017,08,09,10,54,17.30
2017,08,09,10,55,17.30
2017,08,09,10,56,17.50
2017,08,09,10,57,17.60
2017,08,09,10,58,17.70
2017,08,09,10,59,17.80
2017,08,09,11,00,17.80
2017,08,09,11,01,17.80
2017,08,09,11,02,17.80
2017,08,09,11,03,17.80
2017,08,09,11,04,17.90
2017,08,09,11,05,17.90
2017,08,09,11,06,17.90
2017,08,09,11,07,17.90
2017,08,09,11,08,17.90
2017,08,09,11,09,17.90
2017,08,09,11,10,17.90
2017,08,09,11,11,17.90
2017,08,09,11,12,18.00
2017,08,09,11,13,18.10
2017,08,09,11,14,18.20
2017,08,09,11,15,18.30
2017,08,09,11,16,18.50
2017,08,09,11,17,18.50
2017,08,09,11,18,18.60
2017,08,09,11,19,18.60
2017,08,09,11,20,18.70
2017,08,09,11,21,18.80
2017,08,09,11,22,18.80
2017,08,09,11,23,18.80
2017,08,09,11,24,18.80
2017,08,09,11,25,18.80
2017,08,09,11,26,18.80
2017,08,09,11,27,18.80
2017,08,09,11,28,18.80
2017,08,09,11,29,18.80
2017,08,09,11,30,18.70
2017,08,09,11,31,18.70
2017,08,09,11,32,18.70
2017,08,09,11,33,18.80
2017,08,09,11,34,18.70
2017,08,09,11,35,18.80
2017,08,09,11,36,18.80
2017,08,09,11,37,18.90
2017,08,09,11,38,18.90
2017,08,09,11,39,18.90
2017,08,09,11,40,18.90
2017,08,09,11,41,18.90
2017,08,09,11,42,18.90
2017,08,09,11,43,18.90
2017,08,09,11,44,18.90
2017,08,09,11,45,18.90
2017,08,09,11,46,18.90
2017,08,09,11,47,18.80
2017,08,09,11,48,18.80
2017,08,09,11,49,18.80
2017,08,09,11,50,18.70
2017,08,09,11,51,18.70
2017,08,09,11,52,18.70
2017,08,09,11,53,18.60
2017,08,09,11,54,18.60
2017,08,09,11,55,18.50
2017,08,09,11,56,18.50
2017,08,09,11,57,18.60
2017,08,09,11,58,18.70
2017,08,09,11,59,18.70
2017,08,09,12,00,18.80
2017,08,09,12,01,18.80
2017,08,09,12,02,18.80
2017,08,09,12,03,18.80
2017,08,09,12,04,18.90
2017,08,09,12,05,18.90
2017,08,09,12,06,19.00
2017,08,09,12,07,19.00
2017,08,09,12,08,19.10
2017,08,09,12,09,19.10
2017,08,09,12,10,19.10
2017,08,09,12,11,19.20
2017,08,09,12,12,19.30
2017,08,09,12,13,19.30
2017,08,09,12,14,19.40
2017,08,09,12,15,19.40
2017,08,09,12,16,19.50
2017,08,09,12,17,19.50
2017,08,09,12,18,19.60
2017,08,09,12,19,19.60
2017,08,09,12,20,19.60
2017,08,09,12,21,19.60
2017,08,09,12,22,19.60
2017,08,09,12,23,19.60
2017,08,09,12,24,19.60
2017,08,09,12,25,19.60
2017,08,09,12,26,19.60
2017,08,09,12,27,19.60
2017,08,09,12,28,19.60
2017,08,09,12,29,19.60
2017,08,09,12,30,19.50
2017,08,09,12,31,19.40
2017,08,09,12,32,19.40
2017,08,09,12,33,19.40
2017,08,09,12,34,19.40
2017,08,09,12,35,19.40
2017,08,09,12,36,19.40
2017,08,09,12,37,19.40
2017,08,09,12,38,19.40
2017,08,09,12,39,19.40
2017,08,09,12,40,19.40
2017,08,09,12,41,19.40
2017,08,09,12,42,19.40
2017,08,09,12,43,19.50
2017,08,09,12,44,19.60
2017,08,09,12,45,19.60
2017,08,09,12,46,19.70
2017,08,09,12,47,19.70
2017,08,09,12,48,19.80
2017,08,09,12,49,19.80
2017,08,09,12,50,19.80
2017,08,09,12,51,19.70
2017,08,09,12,52,19.70
2017,08,09,12,53,19.70
2017,08,09,12,54,19.70
2017,08,09,12,55,19.70
2017,08,09,12,56,19.70
2017,08,09,12,57,19.80
2017,08,09,12,58,19.80
2017,08,09,12,59,19.80
2017,08,09,13,00,19.80
2017,08,09,13,01,19.90
2017,08,09,13,02,19.80
2017,08,09,13,03,19.80
2017,08,09,13,04,19.90
2017,08,09,13,05,19.90
2017,08,09,13,06,19.90
2017,08,09,13,07,19.90
2017,08,09,13,08,20.00
2017,08,09,13,09,20.10
2017,08,09,13,10,20.20
2017,08,09,13,11,20.20
2017,08,09,13,12,20.30
2017,08,09,13,13,20.30
2017,08,09,13,14,20.20
2017,08,09,13,15,20.10
2017,08,09,13,16,20.10
2017,08,09,13,17,20.00
2017,08,09,13,18,19.90
2017,08,09,13,19,20.00
2017,08,09,13,20,20.10
2017,08,09,13,21,20.20
2017,08,09,13,22,20.30
2017,08,09,13,23,20.30
2017,08,09,13,24,20.20
2017,08,09,13,25,20.20
2017,08,09,13,26,20.20
2017,08,09,13,27,20.20
2017,08,09,13,28,20.30
2017,08,09,13,29,20.30
2017,08,09,13,30,20.30
2017,08,09,13,31,20.30
2017,08,09,13,32,20.30
2017,08,09,13,33,20.30
2017,08,09,13,34,20.40
2017,08,09,13,35,20.50
2017,08,09,13,36,20.50
2017,08,09,13,37,20.50
2017,08,09,13,38,20.40
2017,08,09,13,39,20.40
2017,08,09,13,40,20.40
2017,08,09,13,41,20.50
2017,08,09,13,42,20.50
2017,08,09,13,43,20.50
2017,08,09,13,44,20.50
2017,08,09,13,45,20.60
2017,08,09,13,46,20.60
2017,08,09,13,47,20.60
2017,08,09,13,48,20.60
2017,08,09,13,49,20.70
2017,08,09,13,50,20.70
2017,08,09,13,51,20.70
2017,08,09,13,52,20.70
2017,08,09,13,53,20.70
2017,08,09,13,54,20.70
2017,08,09,13,55,20.70
2017,08,09,13,56,20.80
2017,08,09,13,57,20.70
2017,08,09,13,58,20.70
2017,08,09,13,59,20.80
2017,08,09,14,00,20.80
2017,08,09,14,01,20.80
2017,08,09,14,02,20.80
2017,08,09,14,03,20.90
2017,08,09,14,04,20.90
2017,08,09,14,05,20.90
2017,08,09,14,06,20.90
2017,08,09,14,07,20.90
2017,08,09,14,08,20.90
2017,08,09,14,09,21.00
2017,08,09,14,10,21.00
2017,08,09,14,11,21.10
2017,08,09,14,12,21.10
2017,08,09,14,13,21.10
2017,08,09,14,14,21.00
2017,08,09,14,15,21.00
2017,08,09,14,16,21.00
2017,08,09,14,17,21.00
2017,08,09,14,18,21.10
2017,08,09,14,19,21.10
2017,08,09,14,20,21.10
2017,08,09,14,21,21.10
2017,08,09,14,22,21.10
2017,08,09,14,23,21.10
2017,08,09,14,24,21.10
2017,08,09,14,25,21.10
2017,08,09,14,26,21.10
2017,08,09,14,27,21.10
2017,08,09,14,28,21.00
2017,08,09,14,29,21.10
2017,08,09,14,30,21.10
2017,08,09,14,31,21.10
2017,08,09,14,32,21.10
2017,08,09,14,33,21.10
2017,08,09,14,34,21.10
2017,08,09,14,35,21.00
2017,08,09,14,36,21.00
2017,08,09,14,37,20.90
2017,08,09,14,38,20.90
2017,08,09,14,39,20.90
2017,08,09,14,40,20.90
2017,08,09,14,41,20.90
2017,08,09,14,42,20.90
2017,08,09,14,43,20.90
2017,08,09,14,44,20.90
2017,08,09,14,45,20.80
2017,08,09,14,46,20.80
2017,08,09,14,47,20.80
2017,08,09,14,48,20.80
2017,08,09,14,49,20.80
2017,08,09,14,50,20.80
2017,08,09,14,51,20.80
2017,08,09,14,52,20.80
2017,08,09,14,53,20.80
2017,08,09,14,54,20.70
2017,08,09,14,55,20.70
2017,08,09,14,56,20.70
2017,08,09,14,57,20.70
2017,08,09,14,58,20.70
2017,08,09,14,59,20.70
2017,08,09,15,00,20.70
2017,08,09,15,01,20.70
2017,08,09,15,02,20.70
2017,08,09,15,03,20.70
2017,08,09,15,04,20.80
2017,08,09,15,05,20.80
2017,08,09,15,06,20.70
2017,08,09,15,07,20.70
2017,08,09,15,08,20.70
2017,08,09,15,09,20.70
2017,08,09,15,10,20.80
2017,08,09,15,11,20.90
2017,08,09,15,12,20.90
2017,08,09,15,13,21.00
2017,08,09,15,14,21.00
2017,08,09,15,15,21.00
2017,08,09,15,16,20.90
2017,08,09,15,17,21.00
2017,08,09,15,18,20.90
2017,08,09,15,19,20.90
2017,08,09,15,20,20.90
2017,08,09,15,21,20.90
2017,08,09,15,22,20.90
2017,08,09,15,23,20.90
2017,08,09,15,24,20.90
2017,08,09,15,25,21.00
2017,08,09,15,26,21.10
2017,08,09,15,27,21.10
2017,08,09,15,28,21.10
2017,08,09,15,29,21.20
2017,08,09,15,30,21.10
2017,08,09,15,31,21.10
2017,08,09,15,32,21.10
2017,08,09,15,33,21.10
2017,08,09,15,34,21.10
2017,08,09,15,35,21.00
2017,08,09,15,36,21.00
2017,08,09,15,37,20.90
2017,08,09,15,38,20.90
2017,08,09,15,39,20.90
2017,08,09,15,40,20.90
2017,08,09,15,41,20.80
2017,08,09,15,42,20.80
2017,08,09,15,43,20.80
2017,08,09,15,44,20.90
2017,08,09,15,45,20.80
2017,08,09,15,46,20.80
2017,08,09,15,47,20.70
2017,08,09,15,48,20.70
2017,08,09,15,49,20.70
2017,08,09,15,50,20.70
2017,08,09,15,51,20.70
2017,08,09,15,52,20.70
2017,08,09,15,53,20.70
2017,08,09,15,54,20.60
2017,08,09,15,55,20.60
2017,08,09,15,56,20.60
2017,08,09,15,57,20.50
2017,08,09,15,58,20.50
2017,08,09,15,59,20.50
2017,08,09,16,00,20.40
2017,08,09,16,01,20.40
2017,08,09,16,02,20.50
2017,08,09,16,03,20.50
2017,08,09,16,04,20.50
2017,08,09,16,05,20.50
2017,08,09,16,06,20.60
2017,08,09,16,07,20.70
2017,08,09,16,08,20.80
2017,08,09,16,09,20.90
2017,08,09,16,10,20.90
2017,08,09,16,11,20.90
2017,08,09,16,12,20.90
2017,08,09,16,13,20.90
2017,08,09,16,14,20.90
2017,08,09,16,15,20.90
2017,08,09,16,16,21.00
2017,08,09,16,17,21.00
2017,08,09,16,18,21.10
2017,08,09,16,19,21.10
2017,08,09,16,20,21.10
2017,08,09,16,21,21.00
2017,08,09,16,22,21.00
2017,08,09,16,23,21.00
2017,08,09,16,24,20.90
2017,08,09,16,25,20.90
2017,08,09,16,26,20.90
2017,08,09,16,27,20.90
2017,08,09,16,28,20.90
2017,08,09,16,29,20.90
2017,08,09,16,30,20.90
2017,08,09,16,31,20.90
2017,08,09,16,32,20.90
2017,08,09,16,33,20.80
2017,08,09,16,34,20.80
2017,08,09,16,35,20.80
2017,08,09,16,36,20.80
2017,08,09,16,37,20.80
2017,08,09,16,38,20.80
2017,08,09,16,39,20.80
2017,08,09,16,40,20.80
2017,08,09,16,41,20.80
2017,08,09,16,42,20.80
2017,08,09,16,43,20.80
2017,08,09,16,44,20.80
2017,08,09,16,45,20.80
2017,08,09,16,46,20.80
2017,08,09,16,47,20.80
2017,08,09,16,48,20.80
2017,08,09,16,49,20.80
2017,08,09,16,50,20.80
2017,08,09,16,51,20.80
2017,08,09,16,52,20.80
2017,08,09,16,53,20.80
2017,08,09,16,54,20.80
2017,08,09,16,55,20.80
2017,08,09,16,56,20.80
2017,08,09,16,57,20.80
2017,08,09,16,58,20.80
2017,08,09,16,59,20.70
2017,08,09,17,00,20.70
2017,08,09,17,01,20.60
2017,08,09,17,02,20.60
2017,08,09,17,03,20.60
2017,08,09,17,04,20.60
2017,08,09,17,05,20.60
2017,08,09,17,06,20.60
2017,08,09,17,07,20.60
2017,08,09,17,08,20.60
2017,08,09,17,09,20.60
2017,08,09,17,10,20.60
2017,08,09,17,11,20.60
2017,08,09,17,12,20.60
2017,08,09,17,13,20.60
2017,08,09,17,14,20.60
2017,08,09,17,15,20.60
2017,08,09,17,16,20.60
2017,08,09,17,17,20.60
2017,08,09,17,18,20.70
2017,08,09,17,19,20.70